カタログに戻る

STARLINK-3551

運用中通信VLEO
NORAD 51887·PAYLOAD·🇺🇸 United States

打ち上げ Mar 3, 2022 から Cape Canaveral Space Force Station

Loading…

次のパス (今後24時間)

TLE

最新Source: CelesTrak SupGP

元期: Sep 15, 2026, 02:16 UTC

1 51887C 22022AM  26258.09493056 -.00021124  00000+0 -62424-3 0  2586
2 51887  53.1582 212.6431 0001323  87.5468 104.4094 15.34394273    15

AllMySatでSTARLINK-3551をリアルタイム追跡

Download on the App Store